{"data":{"norad_id":68097,"epoch":"2026-09-19T07:02:57.674112Z","epoch_age_seconds":159623,"freshness":"FRESH","line1":"1 68097U 26042AE  26262.29372308  .00004598  00000+0  14715-3 0  9992","line2":"2 68097  53.1599 355.4217 0001286  93.1951 266.9199 15.34400047 31998","mean_motion":15.34400047,"eccentricity":0.0001286,"inclination_deg":53.1599,"raan_deg":355.4217,"arg_perigee_deg":93.1951,"mean_anomaly_deg":266.9199,"bstar":0.00014715,"rev_number":3199,"period_min":93.847755206697,"perigee_km":461.82336847628,"apogee_km":463.58283255013,"semimajor_km":6840.8401005132,"source":"CELESTRAK","updated_at":"2026-09-20T09:00:43.784241Z"}}